Погода в Сатке

Россия / Челябинская область     55°02′25″N   59°01′43″E
темп.,
°C
ветер,
м/с
пор.,
м/с
влажн.,
%
обл.,
%
осадки,
мм/ч
давл.,
гПа
погр.,
м
12 августа, пт
пт1223:00+12з239775 0.9 102185
02:00+10зюз11978 0.0 102217
05:00+9зюз22970 0.0 102223
08:00+12зюз24875 0.0 1022245
11:00+17сз4654100 0.0 10211341
14:00+19сз574611 0.0 10201896
17:00+20сз574721 0.0 10191834
20:00+16з4106716 0.0 1019606
13 августа, сб
сб1323:00+13зюз2108448 0.0 1019250
02:00+11юз37920 0.0 1019145
05:00+10юз38951 0.0 1019188
08:00+14з311770 0.0 1018504
11:00+19зсз595936 0.0 10171159
14:00+20зсз596389 0.2 10171510
17:00+20зсз586214 0.8 10171461
20:00+18сз3106652 0.3 1017664
14 августа, вс
вс1423:00+12зюз119327 0.3 101910
02:00+10юз119219 0.0 101910
05:00+9ю009343 0.0 102110
08:00+13всв00745 0.0 1021150
11:00+17с22465 0.0 10211424
14:00+19ссз324123 0.0 10201707
17:00+19ссз334564 0.0 10201548
20:00+13ссз117350 0.0 102111
15 августа, пн
пн1523:00+10ю11788 0.0 102210
02:00+10ю1175100 0.0 102111
05:00+9ююз11735 0.0 102210
08:00+14сз11610 0.0 1022123
11:00+19ссз23510 0.0 10211175
14:00+20ссз33425 0.0 10211882
17:00+20ссз43455 0.0 10211699
20:00+14с11740 0.0 102211
16 августа, вт
вт1623:00+10ююв11800 0.0 102310
02:00+9ююв11830 0.0 102410
05:00+7юв11870 0.0 102510
08:00+12св11670 0.0 1025151
11:00+17ссв22470 0.0 10241203
14:00+19с32383 0.0 10241693
17:00+19ссз33410 0.0 10241533
20:00+13ссз12740 0.0 102511